This is the latest recevied weather packets stored in our database for station/object G4KVI. If no packets are shown the sender has not sent any weather packets the latest 10 day(s).
| Time | Temp. | Humidity | Pressure | Rain* | Wind** | Luminosity | Snow |
|---|---|---|---|---|---|---|---|
| 1787640904 | 15° C | 82% | 1014.9 hPa | 0 mm | - | 50 W/m² | - |
| 1787640604 | 15° C | 82% | 1014.9 hPa | 0 mm | - | 45 W/m² | - |
| 1787640304 | 15° C | 82% | 1014.9 hPa | 0 mm | - | 38 W/m² | - |
| 1787640004 | 15° C | 82% | 1014.7 hPa | 0 mm | - | 35 W/m² | - |
| 1787639704 | 15° C | 82% | 1014.7 hPa | 0 mm | - | 29 W/m² | - |
| 1787639404 | 15° C | 81% | 1014.5 hPa | 0 mm | - | 25 W/m² | - |
| 1787639104 | 15° C | 81% | 1014.8 hPa | 0 mm | - | 22 W/m² | - |
| 1787638804 | 15° C | 81% | 1014.7 hPa | 0 mm | - | 21 W/m² | - |
| 1787638504 | 15° C | 81% | 1014.4 hPa | 0 mm | - | 22 W/m² | - |
| 1787638204 | 14.44° C | 81% | 1014.3 hPa | 0 mm | - | 22 W/m² | - |
| 1787637904 | 14.44° C | 81% | 1014.4 hPa | 0 mm | - | 19 W/m² | - |
| 1787637603 | 15° C | 81% | 1014.6 hPa | 0 mm | - | 16 W/m² | - |
| 1787637304 | 15° C | 80% | 1014.5 hPa | 0 mm | - | 12 W/m² | - |
| 1787637004 | 15° C | 80% | 1014.5 hPa | 0 mm | - | 9 W/m² | - |
| 1787636704 | 14.44° C | 81% | 1014.5 hPa | 0 mm | - | 9 W/m² | - |
| 1787636404 | 14.44° C | 81% | 1014.9 hPa | 0 mm | - | 6 W/m² | - |
| 1787636104 | 14.44° C | 81% | 1014.5 hPa | 0 mm | - | 5 W/m² | - |
| 1787635803 | 14.44° C | 81% | 1014.8 hPa | 0 mm | - | 3 W/m² | - |
| 1787635503 | 14.44° C | 81% | 1014.6 hPa | 0 mm | - | 2 W/m² | - |
| 1787635203 | 14.44° C | 80% | 1014.4 hPa | 0 mm | - | 2 W/m² | - |
| 1787634903 | 14.44° C | 80% | 1014.5 hPa | 0 mm | - | 1 W/m² | - |
| 1787634603 | 14.44° C | 80% | 1014.3 hPa | 0 mm | - | 0 W/m² | - |
| 1787634304 | 14.44° C | 80% | 1014.5 hPa | 0 mm | - | 0 W/m² | - |
| 1787634004 | 14.44° C | 80% | 1014.4 hPa | 0 mm | - | 0 W/m² | - |
| 1787633703 | 14.44° C | 80% | 1014.6 hPa | 0 mm | - | 0 W/m² | - |
* Rain latest hour (hover to see other rain measurements)
** Current wind speed in m/s (hover to see current wind gust speed)